Lid_Strength_Index
-1 -1 -2 -1 -2 -2 -2 -2 -2 -2 -1 -1 -1 -2 -2 -2 -2 -2 -2 -1 -1 -1 -1 -1 -1 -1 -2 -1 -1 -2 -1 -1 -1 -1 -1 -1 -1 -1 -1 -1 -1 -1 -1
-1 -1 -1 -1 -1 -2 -2 -1 -1 -1 -1 -1 -1 -1 -1 -2 -2 -2 -2 -2 -1 -1 -1 -1 -2 -1 -2 -1 -1 -1 -2 -1 -1 -1 -1 -1 -1 -1 -1 -1 -1 -1 -1
-1 -1 -1 -1 -1 -2 -1 -1 -1 -2 -1 -1 -0 -2 -2 -1 -1 -1 -2 -2 -2 -2 -1 -1 -1 -2 -2 -2 -1 -2 -1 -2 -1 -2 -2 -1 -1 -1 -1 -1 -1 -2 -1
-2 -1 -1 -1 -2 -2 -2 -1 -1 -1 -1 -0 -0 -1 -2 -1 -1 -2 -2 -2 -2 -2 -2 -2 -2 -2 -1 -2 -2 -2 -1 -2 -1 -2 -2 -2 -2 -1 -1 -2 -1 -1 -1
-2 -1 -1 -1 -2 -1 -1 -1 -1 -1 -0 -0 -0 -1 -1 -1 -1 -1 -2 -2 -2 -2 -2 -2 -3 -2 -1 -1 -1 -1 -1 -2 -2 -2 -2 -1 -2 -2 -2 -2 -1 -2 -2
-2 -1 -1 -1 -1 -1 -1 -1 -1 -1 -1 -1 -0 -0 -1 -1 -1 -1 -1 -2 -2 -1 -2 -2 -2 -2 -2 -1 -1 -1 -1 -1 -2 -2 -2 -2 -2 -2 -2 -2 -2 -2 -2
-2 -1 -1 -1 -1 -0 -0 -1 -0 0 -0 -1 0 1 0 -0 -0 -1 -1 -1 -1 -1 -1 -2 -2 -2 -2 -2 -2 -1 -1 -1 -1 -1 -1 -2 -2 -2 -2 -2 -2 -2 -2
-2 -1 -1 -1 -1 -0 -0 -0 -0 0 -0 -1 1 1 3 1 -0 -0 -1 -1 -1 -2 -1 -2 -1 -2 -2 -2 -2 -1 -1 -1 -1 -1 -1 -1 -1 -1 -1 -1 -1 -1 -1
-1 -1 -1 -1 -1 -1 0 -0 -0 0 1 -0 -0 1 3 4 2 -0 0 -1 -1 -1 -2 -2 -2 -2 -2 -2 -2 -2 -2 -2 -2 -2 -2 -2 -2 -2 -2 -2 -2 -2 -2
-1 -1 -1 -1 -1 -1 -0 -0 -0 -0 -0 1 0 -0 0 1 3 4 0 0 -1 -1 -1 -2 -2 -2 -2 -2 -2 -2 -2 -3 -3 -2 -2 -2 -2 -2 -2 -2 -2 -3 -3
-1 -1 -1 -1 -1 -0 -1 -1 -0 -0 -0 0 1 1 0 0 0 2 4 2 0 -0 -1 -1 -2 -2 -2 -2 -2 -2 -2 -3 -3 -2 -1 -1 -1 -1 -1 -1 -1 -2 -2
-0 -1 -1 -1 -1 -1 -1 -0 -1 -1 -0 -0 0 0 1 1 2 2 3 2 2 1 -0 -1 -1 -1 -2 -2 -2 -3 -2 -3 -3 -3 -3 -2 -2 -1 -1 -1 -1 -2 -2
0 -0 -1 -0 -0 -1 -1 -1 -1 -0 -0 0 -0 1 0 0 0 1 1 2 2 1 0 -0 -1 -1 -1 -2 -2 -2 -2 -3 -2 -2 -2 -2 -3 -2 -2 -2 -2 -2 -2
0 -1 -0 -1 -1 -1 -1 -1 -0 -0 -1 -0 -0 -0 0 0 0 0 1 2 3 2 1 1 -1 -1 -1 -2 -2 -2 -2 -1 -2 -2 -2 -2 -2 -2 -3 -3 -3 -3 -2
-0 -0 -1 -0 -0 -1 -1 -1 -0 -0 -0 -0 -0 -0 0 -0 -0 -0 -0 0 2 4 3 1 1 -1 -2 -2 -2 -2 -2 -1 -1 -1 -1 -1 -1 -2 -2 -3 -3 -2 -3
-0 -0 -0 -0 -0 -0 -1 -1 -0 -0 -0 0 -0 -0 -0 -0 -0 -0 0 0 0 2 3 1 0 -1 -2 -2 -2 -2 -2 -2 -2 -1 -1 -1 -1 -2 -2 -2 -2 -2 -2
-0 -0 -0 -0 -0 -0 -0 -0 -0 -0 0 0 -0 0 0 -1 0 0 -0 0 1 1 2 1 -1 -1 -1 -1 -2 -2 -2 -2 -2 -1 -1 -1 -1 -1 -1 -1 -1 -1 -1
-0 -0 -0 0 0 -0 -0 0 0 0 0 1 0 0 0 0 0 -0 0 0 0 -0 1 2 0 0 -0 -1 -1 -1 -1 -2 -2 -2 -1 -1 -0 -0 -1 -1 -0 0 1
0 0 0 0 0 0 0 0 0 0 0 0 0 0 0 0 1 0 0 0 0 0 1 1 2 -0 -0 -1 -0 -1 -1 -2 -1 -2 -0 -0 -0 -0 0 1 1 2 3
0 0 0 0 0 0 0 0 0 0 0 0 -0 0 0 0 0 1 1 0 0 1 1 1 1 1 1 -0 -0 1 1 -0 -0 -1 -2 -1 -1 -0 0 2 2 1 2
0 0 0 0 0 0 0 0 0 0 0 1 0 0 -0 -0 1 1 1 0 0 1 1 2 2 2 2 2 2 1 1 1 -0 -0 -0 -1 -1 -1 -1 0 -0 -1 0
1 0 1 1 1 1 3 3 1 1 0 1 1 0 -0 1 2 3 3 2 0 1 1 2 2 2 1 2 1 1 1 2 3 -1 1 0 -1 -0 -1 -2 -1 -1 -0
1 1 1 1 1 1 5 4 3 0 1 1 1 1 1 1 2 1 4 4 3 2 0 0 1 1 2 1 0 1 1 1 2 -0 0 1 -1 0 -1 -1 -1 -1 -1
1 1 1 1 1 1 6 5 4 0 0 0 0 0 0 0 1 1 0 1 1 1 -0 -0 -0 -0 0 -1 -1 -1 -0 0 0 -0 -1 2 -0 0 -1 -2 -1 -1 -1
1 1 1 1 1 1 7 6 4 1 1 1 0 -0 0 0 3 5 1 1 1 1 2 3 2 2 3 2 0 -0 1 2 2 1 -1 1 0 0 -0 -0 -2 -2 -0
1 1 1 1 2 1 7 7 5 1 1 1 1 0 5 2 8 8 1 1 2 1 0 0 -0 2 2 0 2 -1 -0 2 2 2 -1 1 1 0 2 -1 -1 -1 -1